Station LNDC1 - 9414763 - Oakland Berth 67, CA Image indicating link to RSS feed of recent meteorological observations for station LNDC1


Conditions at LNDC1 as of
(6:30 pm PDT on 05/27/2023)
0130 GMT on 05/28/2023:
     

Click on the graph icon in the table below to see a time series plot of the last five days of that observation.

5-day plot - Wind Direction Wind Direction (WDIR): W ( 260 deg true )
5-day plot - Wind Speed Wind Speed (WSPD): 7.0 kts
5-day plot - Wind Gust Wind Gust (GST): 11.1 kts
5-day plot - Atmospheric Pressure Atmospheric Pressure (PRES):29.96 in
5-day plot - Air Temperature Air Temperature (ATMP): 56.1 °F
5-day plot - Wind Speed at 10 Meters Wind Speed at 10 meters (WSPD10M): 7.8 kts
5-day plot - Wind Speed at 20 Meters Wind Speed at 20 meters (WSPD20M): 7.8 kts
5-day plot -  Wind Speed, Wind Gust and Atmospheric Pressure Combined plot of Wind Speed, Gust, and Air Pressure
NOS Water Level Observation Network Water Level
Previous observations
TIME
(PDT)
5-day plot - Wind Direction
WDIR
 
5-day plot - Wind Speed
WSPD
kts
5-day plot - Wind Gust
GST
kts
5-day plot - Wave Height
WVHT
ft
5-day plot - Dominant Wave Period
DPD
sec
5-day plot - Average Wave Period
APD
sec
5-day plot - Mean Wave Direction
MWD
 
5-day plot - Atmospheric Pressure
PRES
in
5-day plot - Pressure Tendency
PTDY
in
5-day plot - Air Temperature
ATMP
°F
5-day plot - Water Temperature
WTMP
°F
5-day plot - Dew Point
DEWP
°F
5-day plot - Salinity
SAL
psu
5-day plot - Visibility
VIS
nmi
5-day plot - Tide (above MLLW)
TIDE
ft
2023-05-27 06:24 pm W 8.0 11.1----29.96- 55.6-----
2023-05-27 06:18 pm W 8.0 14.0----29.96-------
2023-05-27 06:12 pmWSW 6.0 11.1----29.96-------
2023-05-27 06:06 pmWNW 8.0 12.0----29.97-------
2023-05-27 06:00 pmWSW 8.0 12.0----29.97-0.01 55.2-----
2023-05-27 05:54 pm W 8.0 11.1----29.96- 55.2-----
2023-05-27 05:48 pmWSW 8.9 12.0----29.96- 55.2-----
2023-05-27 05:42 pmWSW 8.0 11.1----29.96- 55.9-----
2023-05-27 05:36 pmWSW 8.0 11.1----29.96- 55.2-----
2023-05-27 05:30 pmWSW 9.9 13.0----29.96- 55.8-----
2023-05-27 05:24 pmWSW 7.0 11.1----29.96- 55.6-----
2023-05-27 05:18 pmWSW 7.0 11.1----29.96- 55.9-----
2023-05-27 05:12 pm W 9.9 13.0----29.96- 55.9-----
2023-05-27 05:06 pm W 8.9 12.0----29.97- 56.5-----
2023-05-27 05:00 pmWSW 7.0 11.1----29.96-0.03 56.5-----
2023-05-27 04:54 pm W 8.0 14.0----29.97- 56.7-----
2023-05-27 04:48 pm W 7.0 14.0----29.97- 56.7-----
2023-05-27 04:42 pm W 8.0 13.0----29.97- 56.5-----
2023-05-27 04:36 pm W 8.0 13.0----29.97- 56.8-----
2023-05-27 04:30 pm W 8.9 14.0----29.97- 57.4-----
2023-05-27 04:24 pm W 8.0 13.0----29.97- 57.4-----
2023-05-27 04:18 pmWSW 8.9 12.0----29.97- 57.2-----
2023-05-27 04:12 pm W 8.0 13.0----29.97- 57.4-----
2023-05-27 04:06 pm W 8.9 12.0----29.97- 56.8-----
2023-05-27 04:00 pmWSW 8.0 14.0----29.97-0.02 57.2-----
2023-05-27 03:54 pmWSW 8.9 14.0----29.97- 57.6-----
2023-05-27 03:48 pm W 8.0 12.0----29.97- 57.9-----
2023-05-27 03:42 pmWSW 8.0 12.0----29.98- 57.6-----
2023-05-27 03:36 pmWSW 9.9 13.0----29.98- 57.6-----
2023-05-27 03:30 pm W 5.1 11.1----29.98- 57.6-----
2023-05-27 03:24 pm W 7.0 12.0----29.98- 57.4-----
2023-05-27 03:18 pmWSW 8.0 12.0----29.98- 57.7-----
2023-05-27 03:12 pm W 8.0 13.0----29.98- 57.7-----
2023-05-27 03:06 pmWSW 8.0 12.0----29.98- 57.7-----
2023-05-27 03:00 pm W 6.0 12.0----29.98-0.02 57.6-----
2023-05-27 02:54 pm W 6.0 11.1----29.98- 58.1-----
2023-05-27 02:48 pm W 5.1 12.0----29.98- 57.9-----
2023-05-27 02:42 pmWSW 8.9 11.1----29.98- 57.7-----
2023-05-27 02:36 pm W 5.1 9.9----29.98- 57.6-----
2023-05-27 02:30 pmWSW 7.0 11.1----29.98- 57.7-----
2023-05-27 02:24 pmWSW 5.1 11.1----29.98- 57.2-----
2023-05-27 02:18 pm W 7.0 9.9----29.98- 57.2-----
2023-05-27 02:12 pm W 7.0 11.1----29.98- 57.2-----
2023-05-27 02:06 pmWNW 6.0 9.9----29.99- 56.8-----
2023-05-27 02:00 pm W 8.9 12.0----29.99-0.01 56.1-----
2023-05-27 01:54 pm W 8.9 13.0----29.99- 56.5-----
2023-05-27 01:48 pm W 7.0 11.1----29.99- 56.1-----
2023-05-27 01:42 pm W 8.9 14.0----29.99- 55.6-----
2023-05-27 01:36 pmWSW 8.9 14.0----30.00- 56.1-----
2023-05-27 01:30 pm W 7.0 12.0----29.99- 57.4-----
2023-05-27 01:24 pm W 8.9 13.0----30.00- 56.8-----
2023-05-27 01:18 pm W 8.0 12.0----30.00-------
2023-05-27 01:12 pm W 8.9 14.0----30.00-------
2023-05-27 01:06 pmWSW 8.9 13.0----29.99-------
2023-05-27 01:00 pm W 8.9 12.0----29.99-0.01 56.1-----
2023-05-27 12:54 pm W 8.9 11.1----29.99- 56.3-----
2023-05-27 12:48 pm W 5.1 11.1----30.00- 56.1-----
2023-05-27 12:42 pmWSW 7.0 11.1----30.00- 56.1-----
2023-05-27 12:36 pm W 6.0 9.9----30.00- 56.3-----
2023-05-27 12:30 pm W 7.0 11.1----30.00- 55.8-----
2023-05-27 12:24 pm W 7.0 12.0----30.00- 56.3-----
2023-05-27 12:18 pmWSW 7.0 12.0----30.00- 55.9-----
2023-05-27 12:12 pmWSW 6.0 11.1----30.00- 56.3-----
2023-05-27 12:06 pm W 8.9 13.0----30.00- 56.3-----
2023-05-27 12:00 pm W 8.0 11.1----30.00+0.00 56.3-----
2023-05-27 11:54 amWSW 7.0 11.1----30.00- 55.8-----
2023-05-27 11:48 am W 7.0 11.1----30.00- 56.3-----
2023-05-27 11:42 am W 8.0 13.0----30.01- 55.6-----
2023-05-27 11:36 am W 8.0 11.1----30.01- 56.3-----
2023-05-27 11:30 am W 8.0 9.9----30.01- 55.9-----
2023-05-27 11:24 amWSW 8.9 13.0----30.00- 55.6-----
2023-05-27 11:18 am W 8.9 12.0----30.01- 55.4-----
2023-05-27 11:12 am W 6.0 9.9----30.00- 55.4-----
2023-05-27 11:06 am W 8.0 9.9----30.00- 55.0-----
2023-05-27 11:00 am W 7.0 11.1----30.00+0.00 55.0-----
2023-05-27 10:54 amWSW 5.1 8.9----30.00- 55.4-----
2023-05-27 10:48 am W 7.0 11.1----30.00- 54.9-----
2023-05-27 10:42 amWSW 8.0 11.1----30.01- 54.9-----
2023-05-27 10:36 amWSW 7.0 12.0----30.01- 54.7-----
2023-05-27 10:30 am W 7.0 9.9----30.00- 54.9-----
2023-05-27 10:24 amWSW 8.0 11.1----30.00- 54.9-----
2023-05-27 10:18 amWSW 7.0 9.9----30.00- 54.7-----
2023-05-27 10:12 amWSW 8.0 11.1----30.00- 54.7-----
2023-05-27 10:06 am W 6.0 11.1----30.01- 54.7-----
2023-05-27 10:00 am W 7.0 11.1----30.01+0.02 54.5-----
2023-05-27 09:54 am W 8.0 9.9----30.01- 54.3-----
2023-05-27 09:48 am W 6.0 8.9----30.01- 54.5-----
2023-05-27 09:42 am W 6.0 9.9----30.01- 54.3-----
2023-05-27 09:36 amWSW 6.0 9.9----30.01- 54.5-----
2023-05-27 09:30 amWSW 7.0 9.9----30.01- 54.3-----
2023-05-27 09:24 amWSW 7.0 9.9----30.01- 54.5-----
2023-05-27 09:18 amWSW 8.0 9.9----30.01- 54.0-----
2023-05-27 09:12 amWSW 6.0 9.9----30.01- 53.8-----
2023-05-27 09:06 amWSW 6.0 9.9----30.01- 54.1-----
2023-05-27 09:00 am W 8.0 9.9----30.00+0.02 53.8-----
2023-05-27 08:54 amWSW 6.0 9.9----30.01- 54.0-----
2023-05-27 08:48 amWSW 5.1 8.9----30.01- 54.0-----
2023-05-27 08:42 am W 7.0 9.9----30.00- 54.0-----
2023-05-27 08:36 am W 7.0 9.9----30.00- 53.8-----
2023-05-27 08:30 am W 6.0 8.9----30.00- 53.6-----
2023-05-27 08:24 amWSW 7.0 12.0----30.00- 53.8-----
2023-05-27 08:18 amWSW 7.0 9.9----30.00- 54.0-----
2023-05-27 08:12 amWSW 8.0 11.1----30.00- 53.6-----
2023-05-27 08:06 am SW 7.0 11.1----30.00- 53.6-----
2023-05-27 08:00 amWSW 8.0 12.0----30.00+0.03 53.6-----
2023-05-27 07:54 amWSW 8.9 11.1----30.00- 53.4-----
2023-05-27 07:48 amWSW 7.0 13.0----30.00- 53.4-----
2023-05-27 07:42 amWSW 7.0 9.9----30.00- 53.2-----
2023-05-27 07:36 am W 7.0 11.1----30.00- 53.1-----
2023-05-27 07:30 am W 7.0 9.9----30.00- 52.9-----
2023-05-27 07:24 amWSW 7.0 11.1----29.99- 53.2-----
2023-05-27 07:18 amWSW 6.0 9.9----29.99- 53.4-----
2023-05-27 07:12 amWSW 7.0 11.1----29.99- 53.4-----
2023-05-27 07:06 amWSW 7.0 9.9----29.99- 53.6-----
2023-05-27 07:00 amWSW 8.0 11.1----29.99+0.01 53.2-----
2023-05-27 06:54 amWSW 8.9 12.0----29.99- 53.2-----
2023-05-27 06:48 amWSW 9.9 13.0----29.99- 53.1-----
2023-05-27 06:42 amWSW 8.0 11.1----29.99- 53.2-----
2023-05-27 06:36 amWSW 8.9 11.1----29.99- 53.2-----
2023-05-27 06:30 amWSW 7.0 11.1----29.99- 53.4-----
2023-05-27 06:24 am W 6.0 11.1----29.99- 53.6-----
2023-05-27 06:18 amWSW 6.0 9.9----29.98- 53.6-----
2023-05-27 06:12 am W 7.0 9.9----29.98- 53.4-----
2023-05-27 06:06 amWSW 7.0 9.9----29.98- 53.2-----
2023-05-27 06:00 amWSW 7.0 9.9----29.98+0.00 53.2-----
2023-05-27 05:54 amWSW 7.0 11.1----29.98- 53.2-----
2023-05-27 05:48 amWSW 7.0 9.9----29.98- 53.2-----
2023-05-27 05:42 am W 6.0 8.9----29.98- 53.1-----
2023-05-27 05:36 amWSW 6.0 8.0----29.98- 53.1-----
2023-05-27 05:30 amWSW 6.0 9.9----29.97- 53.4-----
2023-05-27 05:24 amWSW 6.0 8.9----29.97- 54.0-----
2023-05-27 05:18 amWSW 7.0 8.9----29.97- 53.8-----
2023-05-27 05:12 amWSW 6.0 8.0----29.97- 54.0-----
2023-05-27 05:06 amWSW 7.0 9.9----29.97- 53.8-----
2023-05-27 05:00 amWSW 5.1 8.0----29.97-0.02 53.8-----
2023-05-27 04:54 amWSW 6.0 7.0----29.97- 53.8-----
2023-05-27 04:48 am SW 6.0 8.0----29.97- 54.0-----
2023-05-27 04:42 amWSW 7.0 8.9----29.97- 53.8-----
2023-05-27 04:36 amWSW 6.0 7.0----29.97- 54.1-----
2023-05-27 04:30 amWSW 5.1 8.9----29.97- 54.0-----
2023-05-27 04:24 am SW 6.0 8.9----29.98- 54.0-----
2023-05-27 04:18 amWSW 6.0 8.9----29.98- 53.6-----
2023-05-27 04:12 amWSW 8.0 9.9----29.98- 53.6-----
2023-05-27 04:06 am SW 4.1 6.0----29.98- 54.0-----
2023-05-27 04:00 am SW 4.1 6.0----29.98-0.02 53.6-----
2023-05-27 03:54 amWSW 5.1 6.0----29.98- 53.8-----
2023-05-27 03:48 amWSW 4.1 6.0----29.98- 54.0-----
2023-05-27 03:42 amWSW 6.0 8.9----29.98- 53.8-----
2023-05-27 03:36 amWSW 5.1 8.0----29.98- 53.6-----
2023-05-27 03:30 amWSW 5.1 8.9----29.98- 54.0-----
2023-05-27 03:24 amWSW 6.0 8.9----29.98- 53.6-----
2023-05-27 03:18 am SW 5.1 7.0----29.98- 53.8-----
2023-05-27 03:12 am SW 6.0 8.0----29.98- 54.0-----
2023-05-27 03:06 am SW 6.0 8.9----29.98- 54.0-----
2023-05-27 03:00 amSSW 6.0 8.0----29.98-0.01 53.8-----
2023-05-27 02:54 amWSW 8.0 9.9----29.98- 54.0-----
2023-05-27 02:48 amWSW 7.0 8.9----29.99- 54.0-----
2023-05-27 02:42 am SW 8.0 9.9----29.99- 54.0-----
2023-05-27 02:36 amWSW 6.0 8.9----29.99- 53.8-----
2023-05-27 02:30 amWSW 7.0 11.1----29.99- 53.8-----
2023-05-27 02:24 amWSW 7.0 8.9----29.99- 53.6-----
2023-05-27 02:18 am SW 6.0 9.9----29.99- 53.6-----
2023-05-27 02:12 amWSW 8.0 9.9----29.99- 53.8-----
2023-05-27 02:06 amWSW 8.0 9.9----29.99- 53.8-----
2023-05-27 02:00 am SW 8.9 11.1----29.99-0.01 53.6-----
2023-05-27 01:54 am SW 6.0 9.9----29.99- 53.4-----
2023-05-27 01:48 amWSW 8.0 11.1----29.99- 53.6-----
2023-05-27 01:42 amWSW 8.9 11.1----29.99- 53.4-----
2023-05-27 01:36 am W 6.0 11.1----29.99- 53.6-----
2023-05-27 01:30 amWSW 7.0 8.9----29.99- 53.6-----
2023-05-27 01:24 amWSW 7.0 12.0----29.99- 53.6-----
2023-05-27 01:18 amWSW 7.0 12.0----30.00- 53.6-----
2023-05-27 01:12 amWSW 7.0 11.1----29.99- 54.0-----
2023-05-27 01:06 amWSW 8.9 12.0----30.00- 53.6-----
2023-05-27 01:00 amWSW 6.0 9.9----30.00+0.00 53.8-----
2023-05-27 12:54 amWSW 8.9 12.0----29.99- 53.8-----
2023-05-27 12:48 amWSW 5.1 8.0----30.00- 54.0-----
2023-05-27 12:42 amWSW 7.0 9.9----30.00- 54.0-----
2023-05-27 12:36 am W 5.1 7.0----30.00- 54.1-----
2023-05-27 12:30 am SW 7.0 8.9----30.00- 53.8-----
2023-05-27 12:24 am W 5.1 8.9----30.00- 53.8-----
2023-05-27 12:18 amWSW 7.0 13.0----30.00- 54.1-----
2023-05-27 12:12 amWSW 8.0 9.9----30.00- 54.1-----
2023-05-27 12:06 amWSW 8.0 9.9----30.00- 54.3-----
2023-05-27 12:00 amWSW 6.0 11.1----30.00+0.01 54.3-----
2023-05-26 11:54 pm W 5.1 8.9----30.00- 54.3-----
2023-05-26 11:48 pmWSW 8.0 12.0----30.00- 54.3-----
2023-05-26 11:42 pmWSW 8.0 11.1----30.00- 54.1-----
2023-05-26 11:36 pmWSW 8.0 11.1----29.99- 54.5-----
2023-05-26 11:30 pmWSW 7.0 8.9----30.00-------
2023-05-26 11:24 pmWSW 8.0 11.1----29.99-------
2023-05-26 11:18 pm W 7.0 11.1----30.00- 54.3-----
2023-05-26 11:12 pm W 6.0 9.9----30.00- 54.3-----
2023-05-26 11:06 pm W 5.1 11.1----30.00- 54.5-----
2023-05-26 11:00 pmWSW 7.0 9.9----30.00+0.03 54.3-----
2023-05-26 10:54 pmWSW 8.9 12.0----30.00- 54.3-----
2023-05-26 10:48 pmWSW 9.9 12.0----30.00- 54.3-----
2023-05-26 10:42 pmWSW 8.0 11.1----30.00- 54.7-----
2023-05-26 10:36 pm W 5.1 9.9----30.00- 54.3-----
2023-05-26 10:30 pmWSW 8.9 12.0----30.00- 54.5-----
2023-05-26 10:24 pmWSW 8.0 9.9----30.00- 54.7-----
2023-05-26 10:18 pmWSW 8.0 11.1----30.00- 54.5-----
2023-05-26 10:12 pmWSW 8.0 9.9----30.00- 54.7-----
2023-05-26 10:06 pmWSW 6.0 9.9----30.00- 54.7-----
2023-05-26 10:00 pmWSW 8.9 11.1----30.00+0.04 54.9-----
2023-05-26 09:54 pmWSW 6.0 11.1----29.99- 55.4-----
2023-05-26 09:48 pm SW 6.0 8.9----29.99- 55.0-----
2023-05-26 09:42 pmWSW 7.0 9.9----29.99- 54.9-----
2023-05-26 09:36 pmWSW 7.0 8.9----29.99- 55.2-----
2023-05-26 09:30 pmWSW 5.1 9.9----29.99- 55.0-----
2023-05-26 09:24 pmWSW 7.0 9.9----29.99- 55.4-----
2023-05-26 09:18 pm W 5.1 7.0----29.99- 55.4-----
2023-05-26 09:12 pm W 5.1 8.9----29.99- 55.4-----
2023-05-26 09:06 pm W 6.0 8.9----29.99- 55.4-----
2023-05-26 09:00 pm W 7.0 9.9----29.98+0.03 55.0-----
2023-05-26 08:54 pmWSW 6.0 9.9----29.98- 55.2-----
2023-05-26 08:48 pmWSW 8.0 11.1----29.98- 55.4-----
2023-05-26 08:42 pm SW 7.0 8.9----29.98- 55.6-----
2023-05-26 08:36 pm W 2.9 6.0----29.98- 55.8-----
2023-05-26 08:30 pm W 5.1 8.0----29.98- 55.6-----
2023-05-26 08:24 pmWSW 7.0 9.9----29.98- 55.4-----
2023-05-26 08:18 pmWSW 8.9 9.9----29.97- 55.6-----
2023-05-26 08:12 pmWSW 8.0 8.9----29.97- 55.8-----
2023-05-26 08:06 pmWNW 4.1 8.0----29.97- 55.9-----
2023-05-26 08:00 pmWSW 7.0 9.9----29.97+0.00 56.1-----
2023-05-26 07:54 pmWSW 6.0 11.1----29.97- 55.8-----
2023-05-26 07:48 pm W 6.0 8.9----29.97- 55.9-----
2023-05-26 07:42 pm W 5.1 9.9----29.97- 56.1-----
2023-05-26 07:36 pm W 6.0 8.9----29.96- 56.1-----
2023-05-26 07:30 pmWSW 7.0 8.9----29.96-------
2023-05-26 07:24 pm W 8.0 11.1----29.96-------
2023-05-26 07:18 pm W 7.0 11.1----29.96- 56.3-----
2023-05-26 07:12 pm W 8.0 11.1----29.96- 56.5-----
2023-05-26 07:06 pm W 6.0 12.0----29.96- 56.8-----
2023-05-26 07:00 pm W 8.0 11.1----29.96+0.00 56.7-----
2023-05-26 06:54 pm W 7.0 9.9----29.96- 56.8-----